Вернуться в каталог

STARLINK-36296

АктивенСвязьSSO
NORAD 68380·PAYLOAD·🇺🇸 United States

Запущен Mar 26, 2026 с Vandenberg Space Force Base

Loading…

Ближайшие Пролёты (ближайшие 24 часа)

TLE

СвежийSource: CelesTrak SupGP

Эпоха: Sep 15, 2026, 02:54 UTC

1 68380C 26063A   26258.12131944 -.00031812  00000+0 -98767-3 0  2584
2 68380  97.2864  42.0330 0000928  86.6573 110.0386 15.33451442    11

Отслеживайте STARLINK-36296 в реальном времени с AllMySat

Download on the App Store